Flag for Poland Weather past 2 weeks in Częstochowa, Poland

Now
54 °F

Clear.


Feels Like: 52 °F
Forecast: 42 / 66 °F
Wind: 6 mph from Southeast

Location: Katowice Airport

Current Time: Apr 27, 2015 at 8:10:09 AM

Latest Report: Apr 27, 2015 at 7:30 AM


Visibility: 5 mi

Pressure: 29.74 "Hg

Humidity: 88%

Dew point: 50 °F

Location of CzęstochowaLocation

Historic Weather in Częstochowa — Graph

°F

Częstochowa temperature yesterday

Maximum temperature yesterday: 66 °F (at 11:30 AM)
Minimum temperature yesterday: 46 °F (at 11:30 PM)
Average temperature yesterday: 59 °F

Past Weeks' High & Low Weather Summary

 TemperatureHumidityPressure
High72 °F (Apr 25, 2:30 PM)100% (Apr 17, 6:00 AM)30.39 "Hg (Apr 17, 6:00 AM)
Low30 °F (Apr 21, 5:00 AM)23% (Apr 12, 4:00 PM)29.74 "Hg (Apr 27, 4:30 AM)
Average50 °F60%30.03 "Hg
* Reported Apr 12 7:00 AM — Apr 27 7:00 AM, Częstochowa, Weather by CustomWeather, © 2015

Note: Actual official high and low records may vary slightly from our data, if they occured in-between our weather recording intervals... More about our weather records

Advertising

Częstochowa weather history for previous 24 hours

 ConditionsComfort  
Time TempWeatherWind HumidityBarometerVisibility
7:00 AM
Mon, Apr 27
52 °FFog.6 mph100%29.74 "Hg3 mi
6:30 AM50 °FFog.6 mph100%29.74 "Hg2 mi
6:00 AM45 °FFog.5 mph100%29.74 "Hg1 mi
5:30 AM46 °FFog.5 mph100%29.74 "Hg1 mi
5:00 AM46 °FFog.3 mph93%29.74 "Hg1 mi
4:30 AM43 °FFog.5 mph100%29.74 "Hg1 mi
4:00 AM43 °FFog.3 mph100%29.77 "Hg1 mi
3:30 AM45 °FFog.2 mph100%29.77 "Hg1 mi
3:00 AM43 °FQuite cool.5 mph93%29.77 "Hg1 mi
2:30 AM43 °FQuite cool.3 mph100%29.77 "Hg1 mi
2:00 AM43 °FQuite cool.3 mph100%29.77 "Hg1 mi
1:30 AM43 °FQuite cool.5 mph100%29.77 "Hg1 mi
1:00 AM45 °FFog.3 mph93%29.77 "Hg0 mi
12:30 AM45 °FQuite cool.5 mph100%29.77 "Hg1 mi
12:00 AM46 °FCool.5 mph93%29.77 "Hg1 mi
11:30 PM
Sun, Apr 26
46 °FCool.2 mph100%29.80 "Hg1 mi
11:00 PM50 °FCool.2 mph100%29.80 "Hg1 mi
10:30 PM48 °FFog.1 mph100%29.80 "Hg0 mi
10:00 PM52 °FCool.1 mph94%29.80 "Hg1 mi
9:30 PM52 °FCool.2 mph94%29.80 "Hg1 mi
9:00 PM54 °FFog.2 mph100%29.77 "Hg5 mi
8:30 PM55 °FSunny.3 mph94%29.77 "Hg10 mi
8:00 PM55 °FSunny.2 mph88%29.77 "Hg10 mi
7:30 PM57 °FPassing clouds.2 mph88%29.77 "HgN/A
7:00 PM55 °FPassing clouds.2 mph94%29.77 "HgN/A
6:30 PM55 °FSprinkles. Scattered clouds.8 mph94%29.77 "HgN/A
6:00 PM57 °FSprinkles. Scattered clouds.15 mph88%29.80 "HgN/A
5:30 PM59 °FSprinkles. Passing clouds.5 mph88%29.77 "HgN/A
5:00 PM61 °FPassing clouds.5 mph77%29.77 "HgN/A
4:30 PM59 °FSprinkles. Scattered clouds.9 mph82%29.77 "HgN/A
4:00 PM63 °FSprinkles. Scattered clouds.9 mph64%29.77 "HgN/A
3:30 PM64 °FPassing clouds.10 mph56%29.77 "HgN/A
3:00 PM64 °FPassing clouds.7 mph56%29.77 "HgN/A
2:30 PM66 °FPassing clouds.6 mph52%29.80 "HgN/A
2:00 PM66 °FPassing clouds.8 mph52%29.80 "HgN/A
1:30 PM66 °FScattered clouds.10 mph49%29.80 "HgN/A
1:00 PM66 °FScattered clouds.6 mph49%29.80 "HgN/A
12:30 PM66 °FPassing clouds.6 mph49%29.80 "HgN/A
12:00 PM66 °FPassing clouds.6 mph46%29.83 "HgN/A
11:30 AM66 °FPassing clouds.5 mph49%29.83 "HgN/A
11:00 AM63 °FPassing clouds.6 mph56%29.83 "HgN/A
10:30 AM63 °FPassing clouds.5 mph59%29.83 "HgN/A
10:00 AM61 °FPassing clouds.5 mph59%29.83 "HgN/A
9:30 AM61 °FSunny.2 mph63%29.83 "Hg10 mi
9:00 AM59 °FPassing clouds.3 mph63%29.83 "HgN/A
8:30 AM59 °FPassing clouds.5 mph59%29.83 "HgN/A
8:00 AM57 °FSunny.2 mph63%29.83 "Hg10 mi
Weather by CustomWeather, © 2015

See weather overviewHow to use our weather pages